Вернуться в каталог

COSMOS 712

АктивенНавигацияLEO
NORAD 7679·PAYLOAD·🇷🇺 Russia

Запущен Feb 28, 1975 с Plesetsk Cosmodrome

Loading…

Ближайшие Пролёты (ближайшие 24 часа)

TLE

СвежийSource: Space-Track

Эпоха: Sep 14, 2026, 06:00 UTC

1 07679U 75016B   26257.25024845 -.00000012  00000-0  25504-4 0  9994
2 07679  74.0076   2.9808 0049735 140.1112 245.5770 12.53466324358417

Отслеживайте COSMOS 712 в реальном времени с AllMySat

Download on the App Store